Simultaneous Nadir Overpasses (SNOs) Predictions

Prediction of SNOs between GOES-15 and METOP-C Satellite Orbit:

Table of predicted SNOs for the next 14.0 days since TLE Epoch: 6/19/2020
Index Date Time (GOES-15) GOES-15 Lat,Lon METOP-C Lat,Lon Distance(km) Time Diff (sec)
1 06/20/2020 06:14:07 -0.09,-127.80 -0.62,-130.22 275.41 80
2 06/21/2020 05:50:48 -0.09,-127.83 0.49,-125.22 297.09 80
3 06/22/2020 18:09:40 0.08,-127.88 0.51,-129.79 217.05 80
4 06/23/2020 17:51:41 0.08,-127.91 -0.59,-124.79 355.48 80
5 06/25/2020 06:10:41 -0.07,-127.95 -0.41,-129.39 164.32 80
6 06/26/2020 05:47:21 -0.07,-127.98 0.70,-124.39 407.53 80
7 06/27/2020 18:06:15 0.06,-128.02 0.25,-128.97 107.93 80
8 06/28/2020 17:48:15 0.07,-128.05 -0.86,-123.98 464.24 80
9 06/30/2020 06:07:14 -0.06,-128.08 -0.19,-128.57 55.63 80
10 07/02/2020 18:05:28 0.06,-128.13 0.04,-128.15 2.05 80




NCC Satellite Simultaneous Nadir Overpasses (SNOs) Prediction Service
